[[{"header":{"parameterUnit":"m.s-1","parameterCategory":1,"la1":30.2991,"la2":30.254,"lo1":-89.0895,"lo2":-89.0444,"dy":0.0017,"dx":0.0017,"nx":28,"ny":28,"refTime":"2024-02-08T09:00:00:Z","depth":0,"parameterNumber":2,"parameterNumberName":"U-component_of_WINDS"},"data":[0,0,0,0,0,0,0,0,0,0,0,0,0,0,0,0,0,0,0,0,0,0,0,0,0,0,0,0,0,0,0,0,0,0,0,0,0,0,0,0,0,0,0,0,0,0,0,0,0,0,0,0,0,0,0,0,0,0,-1.9493,-1.9494,0,-1.9567,-1.9568,-1.9569,-1.9596,-1.9595,-1.9595,-1.9595,-1.9676,-1.9679,-1.9681,0,0,0,0,0,0,0,0,0,0,0,0,0,-1.9379,-1.9381,-1.9493,-1.9494,-1.9495,-1.9567,-1.9568,-1.9569,-1.9596,-1.9595,-1.9595,-1.9595,-1.9675,-1.9678,-1.9681,0,0,0,0,0,0,0,0,0,0,0,0,0,-1.9439,-1.9382,-1.9493,-1.9516,-1.9519,-1.9567,-1.9568,-1.9569,-1.9596,-1.9595,-1.9595,-1.9594,-1.9675,-1.9678,-1.9682,-1.9713,0,0,-1.9693,-1.9694,0,0,0,0,0,0,0,0,-1.9435,-1.9443,-1.9512,-1.9515,-1.9518,-1.9572,-1.9558,-1.9618,-1.9596,-1.9567,-1.9595,-1.9594,-1.9642,-1.9648,-1.9663,-1.9716,-1.972,-1.9693,-1.9695,-1.9697,-1.9698,0,0,0,0,0,0,0,-1.9431,-1.944,-1.9522,-1.9513,-1.9517,-1.9525,-1.9533,-1.9569,-1.9606,-1.9569,-1.9571,-1.958,-1.9644,-1.966,-1.9666,-1.9721,-1.9693,-1.9696,-1.9699,-1.97,-1.9804,-1.9805,0,0,0,0,0,0,-1.9422,-1.9436,-1.952,-1.9525,-1.9475,-1.9528,-1.9537,-1.9555,-1.9606,-1.9613,-1.958,-1.9581,-1.9654,-1.9661,-1.9669,-1.9708,-1.9697,-1.97,-1.9702,-1.9804,-1.9804,-1.9805,0,0,0,0,0,0,-1.942,-1.9429,-1.9517,-1.9481,-1.9493,-1.953,-1.955,-1.9557,-1.9573,-1.9614,-1.9621,-1.9589,-1.9654,-1.9663,-1.9701,-1.9711,-1.9702,-1.9705,-1.9803,-1.9804,-1.9805,-1.9787,0,0,0,0,0,0,-1.9416,-1.9428,-1.9439,-1.9481,-1.9495,-1.9546,-1.9551,-1.9558,-1.9578,-1.958,-1.9624,-1.9631,-1.9654,-1.9696,-1.9705,-1.9716,-1.9708,-1.9802,-1.9803,-1.9804,-1.9787,-1.9787,-1.9787,0,0,0,0,0,-1.9412,-1.9432,-1.9439,-1.9449,-1.9508,-1.9547,-1.9555,-1.9579,-1.9579,-1.9591,-1.9617,-1.963,-1.9709,-1.9699,-1.971,-1.9722,-1.9802,-1.9803,-1.9804,-1.9787,-1.9787,-1.9787,0,0,0,0,0,0,-1.9392,-1.9438,-1.9447,-1.948,-1.9509,-1.9551,-1.9567,-1.9579,-1.961,-1.961,-1.9641,-1.9651,-1.9687,-1.9709,-1.9697,-1.9755,-1.9756,-1.976,-1.9739,-1.974,-1.974,-1.9734,-1.9711,0,0,0,0,0,-1.9392,-1.9417,-1.9457,-1.9483,-1.9497,-1.9529,-1.9547,-1.9563,-1.9595,-1.9608,-1.9638,-1.967,-1.9702,-1.9722,-1.9754,-1.9791,-1.9801,-1.9805,-1.9805,-1.9805,-1.9807,-1.9829,-1.9831,-1.9809,-1.9809,-1.9809,0,0,-1.9391,-1.9419,-1.9434,-1.948,-1.9504,-1.9531,-1.954,-1.9568,-1.959,-1.9613,-1.965,-1.9673,-1.9711,-1.9748,-1.9766,-1.9768,-1.9816,-1.9807,-1.9806,-1.9809,-1.9831,-1.9833,-1.9834,-1.981,-1.981,-1.981,0,0,-1.9403,-1.9427,-1.9451,-1.9475,-1.9511,-1.9533,-1.9539,-1.9579,-1.9594,-1.9631,-1.965,-1.9677,-1.9732,-1.9758,-1.9778,-1.9802,-1.9815,-1.9812,-1.9813,-1.9833,-1.9835,-1.9837,-1.9845,-1.9848,-1.9814,-1.9814,-1.9814,0,-1.9398,-1.9438,-1.9463,-1.949,-1.951,-1.9531,-1.9557,-1.958,-1.9626,-1.964,-1.9641,-1.9709,-1.9737,-1.978,-1.9786,-1.9802,-1.9811,-1.9806,-1.9832,-1.9834,-1.9836,-1.9845,-1.9848,-1.9813,-1.9813,-1.9814,-1.9814,0,-1.943,-1.9458,-1.9474,-1.9515,-1.9537,-1.9563,-1.9593,-1.9613,-1.9628,-1.965,-1.9689,-1.9722,-1.9761,-1.9773,-1.9789,-1.982,-1.9819,-1.9826,-1.9827,-1.9837,-1.9846,-1.9849,-1.9812,-1.9813,-1.9813,-1.9813,0,0,-1.9431,-1.9485,-1.949,-1.9509,-1.9551,-1.9574,-1.9603,-1.9639,-1.9656,-1.9687,-1.9712,-1.9758,-1.9765,-1.9788,-1.9807,-1.9825,-1.9842,-1.983,-1.9831,-1.9831,-1.9878,-1.9872,-1.9875,-1.9851,-1.9852,-1.9852,-1.9875,0,-1.9448,-1.9497,-1.952,-1.956,-1.9586,-1.9608,-1.9633,-1.9662,-1.9684,-1.9711,-1.9737,-1.9768,-1.9774,-1.9789,-1.9808,-1.9835,-1.9851,-1.9834,-1.9876,-1.9877,-1.9864,-1.988,-1.9873,-1.9893,-1.9878,-1.9879,-1.9879,0,-1.9475,-1.9504,-1.9545,-1.9584,-1.9596,-1.9617,-1.9653,-1.9678,-1.9713,-1.9728,-1.9754,-1.9772,-1.9805,-1.9804,-1.9851,-1.9838,-1.9857,-1.9874,-1.9875,-1.988,-1.9878,-1.9884,-1.99,-1.9902,-1.9885,-1.9884,-1.9884,0,-1.947,-1.952,-1.9551,-1.9567,-1.9613,-1.9628,-1.9648,-1.9682,-1.9703,-1.9735,-1.9749,-1.9785,-1.9805,-1.9834,-1.9862,-1.9859,-1.9906,-1.9908,-1.992,-1.9919,-1.9928,-1.9927,-1.9946,-1.9941,-1.9941,-1.9941,-1.9941,0,-1.9487,-1.9511,-1.955,-1.9569,-1.9597,-1.9625,-1.9653,-1.9676,-1.9706,-1.9731,-1.9753,-1.9777,-1.9813,-1.9842,-1.9866,-1.99,-1.991,-1.9924,-1.9929,-1.9921,-1.9919,-1.9933,-1.9932,-1.9942,-1.9942,-1.9942,-1.9942,0,-1.9486,-1.9513,-1.9548,-1.9589,-1.96,-1.9619,-1.9655,-1.9675,-1.9698,-1.973,-1.9739,-1.9776,-1.9812,-1.9843,-1.9891,-1.9906,-1.9942,-1.9949,-1.9929,-1.9932,-1.9942,-1.9941,-1.9971,-1.9977,-1.9968,-1.9968,-1.9968,0,-1.9494,-1.9513,-1.9555,-1.9573,-1.9592,-1.962,-1.9641,-1.967,-1.9691,-1.9732,-1.9748,-1.9784,-1.9814,-1.9871,-1.9903,-1.994,-1.9948,-1.9956,-1.9954,-1.9945,-1.9948,-1.9946,-1.9948,-1.9956,-1.9956,-1.9956,-1.9956,0,-1.9506,-1.9518,-1.9546,-1.9578,-1.9602,-1.9629,-1.9658,-1.9671,-1.9706,-1.9729,-1.9764,-1.9788,-1.9835,-1.9872,-1.9912,-1.9936,-1.9952,-1.9956,-1.9961,-1.9952,-1.994,-1.9946,-1.9928,-1.9955,-1.9955,-1.9955,-1.9955,-1.9956,-1.951,-1.9528,-1.956,-1.959,-1.9614,-1.964,-1.9661,-1.9686,-1.9715,-1.9755,-1.9771,-1.9807,-1.9843,-1.9898,-1.9922,-1.9952,-1.9955,-1.9962,-1.9964,-1.9965,-1.9963,-1.9935,-1.996,-1.996,-1.996,-1.996,-1.996,0,-1.9522,-1.9544,-1.9571,-1.9609,-1.9633,-1.9645,-1.9677,-1.9697,-1.9728,-1.9759,-1.9788,-1.9829,-1.9865,-1.99,-1.9938,-1.9956,-1.9964,-1.9965,-1.9964,-1.9969,-1.9959,-1.995,-1.9957,-1.9957,-1.9957,-1.9957,-1.9957,-1.9957,-1.9531,-1.9561,-1.9578,-1.9621,-1.9643,-1.9677,-1.9694,-1.9719,-1.9744,-1.9788,-1.9817,-1.9839,-1.9872,-1.9913,-1.9947,-1.9957,-1.997,-1.9968,-1.998,-1.997,-1.997,-1.9969,-1.9962,-1.9971,-1.9971,-1.9988,-1.9988,-1.9988]},{"header":{"parameterUnit":"m.s-1","parameterCategory":1,"la1":30.2991,"la2":30.254,"lo1":-89.0895,"lo2":-89.0444,"dy":0.0017,"dx":0.0017,"nx":28,"ny":28,"refTime":"2024-02-08T09:00:00:Z","depth":0,"parameterNumber":3,"parameterNumberName":"V-component_of_WINDS"},"data":[0,0,0,0,0,0,0,0,0,0,0,0,0,0,0,0,0,0,0,0,0,0,0,0,0,0,0,0,0,0,0,0,0,0,0,0,0,0,0,0,0,0,0,0,0,0,0,0,0,0,0,0,0,0,0,0,0,0,1.5016,1.5018,0,1.518,1.5182,1.5184,1.5233,1.5232,1.5231,1.523,1.54,1.5405,1.5411,0,0,0,0,0,0,0,0,0,0,0,0,0,1.4749,1.4754,1.5016,1.5018,1.502,1.518,1.5182,1.5184,1.5233,1.5232,1.5231,1.523,1.5399,1.5405,1.5411,0,0,0,0,0,0,0,0,0,0,0,0,0,1.4884,1.4755,1.5016,1.5064,1.507,1.5179,1.5182,1.5185,1.5233,1.5232,1.5231,1.523,1.5397,1.5404,1.5412,1.5486,0,0,1.5436,1.544,0,0,0,0,0,0,0,0,1.4876,1.4894,1.5055,1.5061,1.5067,1.5185,1.515,1.5286,1.5234,1.5171,1.523,1.5229,1.533,1.5343,1.5377,1.5494,1.5502,1.5437,1.5442,1.5445,1.5448,0,0,0,0,0,0,0,1.4867,1.4887,1.5081,1.5057,1.5065,1.5078,1.5096,1.5176,1.5256,1.5177,1.518,1.5199,1.5333,1.5369,1.5381,1.5504,1.5437,1.5444,1.5449,1.5452,1.5693,1.5695,0,0,0,0,0,0,1.4849,1.4879,1.5076,1.5086,1.4967,1.5084,1.5104,1.5148,1.5255,1.527,1.52,1.5201,1.5356,1.5372,1.5387,1.5483,1.5445,1.5453,1.5457,1.5691,1.5693,1.5695,0,0,0,0,0,0,1.4843,1.4866,1.5069,1.4984,1.501,1.509,1.5139,1.5152,1.5188,1.5272,1.5287,1.5222,1.5356,1.5376,1.5462,1.5489,1.5456,1.5464,1.5689,1.5692,1.5694,1.5673,0,0,0,0,0,0,1.4835,1.4864,1.4892,1.4984,1.5015,1.514,1.5141,1.5156,1.5201,1.5204,1.5297,1.5311,1.5356,1.5449,1.5469,1.55,1.547,1.5687,1.5691,1.5693,1.5672,1.5674,1.5677,0,0,0,0,0,1.4826,1.4879,1.4893,1.4917,1.5052,1.5141,1.5159,1.5209,1.5203,1.5233,1.5288,1.5308,1.5482,1.5458,1.5481,1.5514,1.5686,1.569,1.5693,1.5671,1.5674,1.5677,0,0,0,0,0,0,1.4789,1.4892,1.4909,1.4994,1.5058,1.5149,1.5188,1.5211,1.5279,1.5279,1.5339,1.5359,1.5441,1.5486,1.5456,1.5592,1.5585,1.5593,1.556,1.5564,1.5566,1.5555,1.5476,0,0,0,0,0,1.4791,1.4854,1.4941,1.5008,1.504,1.5108,1.5149,1.5182,1.5252,1.528,1.534,1.5408,1.5478,1.5523,1.5593,1.5678,1.57,1.5712,1.5715,1.5716,1.5723,1.5774,1.5781,1.5707,1.5707,1.5707,0,0,1.4796,1.486,1.4896,1.5003,1.5056,1.5122,1.5131,1.5199,1.5249,1.529,1.5375,1.5422,1.5502,1.5588,1.5629,1.5628,1.5748,1.5721,1.5722,1.5728,1.5778,1.5785,1.5791,1.571,1.5709,1.5709,0,0,1.4838,1.4892,1.4954,1.5008,1.509,1.5135,1.515,1.5238,1.5271,1.5357,1.5389,1.545,1.5569,1.5625,1.5669,1.5733,1.5755,1.5754,1.5768,1.5816,1.5822,1.5828,1.5852,1.586,1.576,1.576,1.576,0,1.4834,1.4933,1.4984,1.5051,1.5098,1.5137,1.5202,1.5252,1.5352,1.5384,1.5381,1.5532,1.5589,1.5689,1.5705,1.5739,1.5759,1.5744,1.5817,1.5823,1.5829,1.5853,1.5862,1.576,1.576,1.576,1.576,0,1.4925,1.4993,1.5034,1.5129,1.518,1.5245,1.5308,1.5353,1.5382,1.5428,1.5516,1.5585,1.5669,1.5695,1.5724,1.5801,1.5798,1.5805,1.58,1.5835,1.5858,1.5868,1.5759,1.5759,1.5759,1.5759,0,0,1.4949,1.5072,1.5086,1.5131,1.5224,1.5278,1.5346,1.5428,1.5467,1.5535,1.5595,1.5695,1.5703,1.5752,1.5788,1.583,1.5879,1.5833,1.5836,1.584,1.597,1.5965,1.5975,1.5893,1.5895,1.5897,1.5964,0,1.5005,1.5127,1.5175,1.5275,1.534,1.5378,1.5438,1.5502,1.5547,1.561,1.566,1.573,1.5734,1.5765,1.5808,1.5863,1.5906,1.5859,1.5951,1.5954,1.5932,1.5987,1.5982,1.6042,1.5973,1.5975,1.5976,0,1.5086,1.5154,1.526,1.5346,1.5375,1.5428,1.5508,1.5566,1.5641,1.567,1.5726,1.5759,1.5834,1.5822,1.5926,1.5893,1.5934,1.5967,1.597,1.5982,1.5968,1.6002,1.6062,1.6071,1.5991,1.599,1.5989,0,1.5095,1.5214,1.5293,1.5329,1.5432,1.5468,1.5512,1.5585,1.5632,1.5702,1.5733,1.5811,1.5854,1.5914,1.5968,1.5954,1.6068,1.606,1.6096,1.6095,1.6119,1.6117,1.6188,1.6142,1.6142,1.6142,1.6142,0,1.5153,1.5217,1.5299,1.5348,1.5421,1.5476,1.5547,1.5595,1.5659,1.5719,1.5757,1.5813,1.5879,1.5944,1.5986,1.6067,1.6086,1.6113,1.6124,1.6111,1.6108,1.6139,1.6137,1.6144,1.6144,1.6143,1.6143,0,1.5177,1.5234,1.5323,1.5412,1.5436,1.5486,1.5564,1.5613,1.566,1.5735,1.5756,1.583,1.5908,1.5967,1.6068,1.6097,1.6183,1.6194,1.6158,1.6164,1.6197,1.6194,1.6292,1.6309,1.625,1.625,1.6251,0,1.5211,1.5261,1.5355,1.5398,1.5442,1.551,1.5557,1.5614,1.5663,1.5751,1.5791,1.5871,1.5939,1.6062,1.6125,1.6203,1.6217,1.6246,1.6229,1.6215,1.622,1.6217,1.6223,1.6249,1.6249,1.6249,1.625,0,1.5266,1.5291,1.5358,1.5436,1.5492,1.5556,1.562,1.5653,1.5721,1.5774,1.5854,1.5906,1.601,1.609,1.6175,1.6222,1.6248,1.6254,1.6267,1.6255,1.6233,1.6247,1.6166,1.6252,1.6252,1.6252,1.6252,1.6252,1.5297,1.5344,1.5418,1.5492,1.5546,1.5606,1.5657,1.571,1.5778,1.5866,1.5895,1.5978,1.6053,1.6169,1.6217,1.6284,1.6284,1.6302,1.6307,1.6311,1.6311,1.6221,1.6299,1.6299,1.6299,1.6299,1.6299,0,1.5356,1.5405,1.5472,1.5561,1.562,1.5638,1.5711,1.5759,1.5831,1.5898,1.5963,1.6056,1.6134,1.6203,1.6285,1.6325,1.6339,1.6345,1.6344,1.6354,1.6305,1.6286,1.6332,1.6332,1.6332,1.6332,1.6332,1.6332,1.5393,1.5474,1.5508,1.5617,1.5667,1.5748,1.5788,1.5844,1.5898,1.5999,1.6064,1.6108,1.6177,1.6264,1.6337,1.6355,1.6384,1.6387,1.6409,1.6362,1.6358,1.6354,1.6337,1.6393,1.6393,1.6453,1.6454,1.6454]}]]